Year,Month,Day,Hour,Minute,Value (Times are PST for temperature in C)
2016,05,25,00,00,13.20
2016,05,25,00,01,13.20
2016,05,25,00,02,13.20
2016,05,25,00,03,13.20
2016,05,25,00,04,13.20
2016,05,25,00,05,13.20
2016,05,25,00,06,13.20
2016,05,25,00,07,13.20
2016,05,25,00,08,13.20
2016,05,25,00,09,13.20
2016,05,25,00,10,13.20
2016,05,25,00,11,13.20
2016,05,25,00,12,13.20
2016,05,25,00,13,13.10
2016,05,25,00,14,13.10
2016,05,25,00,15,13.10
2016,05,25,00,16,13.20
2016,05,25,00,17,13.20
2016,05,25,00,18,13.20
2016,05,25,00,19,13.20
2016,05,25,00,20,13.20
2016,05,25,00,21,13.20
2016,05,25,00,22,13.20
2016,05,25,00,23,13.30
2016,05,25,00,24,13.30
2016,05,25,00,25,13.30
2016,05,25,00,26,13.30
2016,05,25,00,27,13.30
2016,05,25,00,28,13.30
2016,05,25,00,29,13.30
2016,05,25,00,30,13.30
2016,05,25,00,31,13.30
2016,05,25,00,32,13.30
2016,05,25,00,33,13.30
2016,05,25,00,34,13.30
2016,05,25,00,35,13.30
2016,05,25,00,36,13.30
2016,05,25,00,37,13.30
2016,05,25,00,38,13.20
2016,05,25,00,39,13.20
2016,05,25,00,40,13.20
2016,05,25,00,41,13.20
2016,05,25,00,42,13.20
2016,05,25,00,43,13.10
2016,05,25,00,44,13.10
2016,05,25,00,45,13.10
2016,05,25,00,46,13.10
2016,05,25,00,47,13.10
2016,05,25,00,48,13.10
2016,05,25,00,49,13.10
2016,05,25,00,50,13.10
2016,05,25,00,51,13.00
2016,05,25,00,52,13.00
2016,05,25,00,53,13.00
2016,05,25,00,54,12.90
2016,05,25,00,55,12.90
2016,05,25,00,56,12.90
2016,05,25,00,57,12.90
2016,05,25,00,58,12.90
2016,05,25,00,59,12.80
2016,05,25,01,00,12.80
2016,05,25,01,01,12.80
2016,05,25,01,02,12.80
2016,05,25,01,03,12.80
2016,05,25,01,04,12.80
2016,05,25,01,05,12.80
2016,05,25,01,06,12.80
2016,05,25,01,07,12.80
2016,05,25,01,08,12.80
2016,05,25,01,09,12.80
2016,05,25,01,10,12.80
2016,05,25,01,11,12.80
2016,05,25,01,12,12.80
2016,05,25,01,13,12.80
2016,05,25,01,14,12.80
2016,05,25,01,15,12.80
2016,05,25,01,16,12.80
2016,05,25,01,17,12.70
2016,05,25,01,18,12.70
2016,05,25,01,19,12.70
2016,05,25,01,20,12.70
2016,05,25,01,21,12.70
2016,05,25,01,22,12.80
2016,05,25,01,23,12.80
2016,05,25,01,24,12.80
2016,05,25,01,25,12.70
2016,05,25,01,26,12.80
2016,05,25,01,27,12.80
2016,05,25,01,28,12.70
2016,05,25,01,29,12.80
2016,05,25,01,30,12.70
2016,05,25,01,31,12.80
2016,05,25,01,32,12.80
2016,05,25,01,33,12.80
2016,05,25,01,34,12.80
2016,05,25,01,35,12.90
2016,05,25,01,36,12.90
2016,05,25,01,37,12.90
2016,05,25,01,38,12.90
2016,05,25,01,39,12.80
2016,05,25,01,40,12.80
2016,05,25,01,41,12.80
2016,05,25,01,42,12.80
2016,05,25,01,43,12.70
2016,05,25,01,44,12.70
2016,05,25,01,45,12.70
2016,05,25,01,46,12.60
2016,05,25,01,47,12.60
2016,05,25,01,48,12.50
2016,05,25,01,49,12.50
2016,05,25,01,50,12.50
2016,05,25,01,51,12.50
2016,05,25,01,52,12.50
2016,05,25,01,53,12.40
2016,05,25,01,54,12.40
2016,05,25,01,55,12.40
2016,05,25,01,56,12.40
2016,05,25,01,57,12.50
2016,05,25,01,58,12.50
2016,05,25,01,59,12.50
2016,05,25,02,00,12.50
2016,05,25,02,01,12.50
2016,05,25,02,02,12.50
2016,05,25,02,03,12.50
2016,05,25,02,04,12.60
2016,05,25,02,05,12.60
2016,05,25,02,06,12.50
2016,05,25,02,07,12.50
2016,05,25,02,08,12.50
2016,05,25,02,09,12.40
2016,05,25,02,10,12.40
2016,05,25,02,11,12.40
2016,05,25,02,12,12.30
2016,05,25,02,13,12.30
2016,05,25,02,14,12.30
2016,05,25,02,15,12.30
2016,05,25,02,16,12.20
2016,05,25,02,17,12.20
2016,05,25,02,18,12.20
2016,05,25,02,19,12.10
2016,05,25,02,20,12.10
2016,05,25,02,21,12.00
2016,05,25,02,22,12.00
2016,05,25,02,23,12.00
2016,05,25,02,24,11.90
2016,05,25,02,25,11.80
2016,05,25,02,26,11.80
2016,05,25,02,27,11.70
2016,05,25,02,28,11.60
2016,05,25,02,29,11.50
2016,05,25,02,30,11.40
2016,05,25,02,31,11.30
2016,05,25,02,32,11.30
2016,05,25,02,33,11.30
2016,05,25,02,34,11.20
2016,05,25,02,35,11.20
2016,05,25,02,36,11.10
2016,05,25,02,37,11.10
2016,05,25,02,38,11.00
2016,05,25,02,39,11.00
2016,05,25,02,40,10.90
2016,05,25,02,41,10.90
2016,05,25,02,42,10.80
2016,05,25,02,43,10.80
2016,05,25,02,44,10.70
2016,05,25,02,45,10.70
2016,05,25,02,46,10.60
2016,05,25,02,47,10.60
2016,05,25,02,48,10.50
2016,05,25,02,49,10.40
2016,05,25,02,50,10.40
2016,05,25,02,51,10.30
2016,05,25,02,52,10.30
2016,05,25,02,53,10.30
2016,05,25,02,54,10.20
2016,05,25,02,55,10.20
2016,05,25,02,56,10.10
2016,05,25,02,57,10.10
2016,05,25,02,58,10.10
2016,05,25,02,59,10.10
2016,05,25,03,00,10.10
2016,05,25,03,01,10.00
2016,05,25,03,02,10.00
2016,05,25,03,03,10.00
2016,05,25,03,04,10.00
2016,05,25,03,05,9.90
2016,05,25,03,06,9.90
2016,05,25,03,07,9.90
2016,05,25,03,08,9.90
2016,05,25,03,09,9.90
2016,05,25,03,10,9.90
2016,05,25,03,11,9.90
2016,05,25,03,12,9.90
2016,05,25,03,13,9.90
2016,05,25,03,14,9.90
2016,05,25,03,15,9.90
2016,05,25,03,16,9.90
2016,05,25,03,17,9.90
2016,05,25,03,18,9.90
2016,05,25,03,19,9.80
2016,05,25,03,20,9.80
2016,05,25,03,21,9.80
2016,05,25,03,22,9.80
2016,05,25,03,23,9.80
2016,05,25,03,24,9.80
2016,05,25,03,25,9.80
2016,05,25,03,26,9.80
2016,05,25,03,27,9.80
2016,05,25,03,28,9.80
2016,05,25,03,29,9.80
2016,05,25,03,30,9.80
2016,05,25,03,31,9.80
2016,05,25,03,32,9.80
2016,05,25,03,33,9.80
2016,05,25,03,34,9.70
2016,05,25,03,35,9.70
2016,05,25,03,36,9.70
2016,05,25,03,37,9.70
2016,05,25,03,38,9.70
2016,05,25,03,39,9.70
2016,05,25,03,40,9.70
2016,05,25,03,41,9.70
2016,05,25,03,42,9.70
2016,05,25,03,43,9.70
2016,05,25,03,44,9.60
2016,05,25,03,45,9.60
2016,05,25,03,46,9.60
2016,05,25,03,47,9.60
2016,05,25,03,48,9.60
2016,05,25,03,49,9.60
2016,05,25,03,50,9.60
2016,05,25,03,51,9.60
2016,05,25,03,52,9.60
2016,05,25,03,53,9.60
2016,05,25,03,54,9.60
2016,05,25,03,55,9.60
2016,05,25,03,56,9.60
2016,05,25,03,57,9.60
2016,05,25,03,58,9.60
2016,05,25,03,59,9.60
2016,05,25,04,00,9.60
2016,05,25,04,01,9.60
2016,05,25,04,02,9.60
2016,05,25,04,03,9.70
2016,05,25,04,04,9.70
2016,05,25,04,05,9.70
2016,05,25,04,06,9.70
2016,05,25,04,07,9.70
2016,05,25,04,08,9.70
2016,05,25,04,09,9.70
2016,05,25,04,10,9.70
2016,05,25,04,11,9.70
2016,05,25,04,12,9.60
2016,05,25,04,13,9.60
2016,05,25,04,14,9.60
2016,05,25,04,15,9.50
2016,05,25,04,16,9.50
2016,05,25,04,17,9.40
2016,05,25,04,18,9.40
2016,05,25,04,19,9.40
2016,05,25,04,20,9.40
2016,05,25,04,21,9.40
2016,05,25,04,22,9.30
2016,05,25,04,23,9.30
2016,05,25,04,24,9.30
2016,05,25,04,25,9.30
2016,05,25,04,26,9.30
2016,05,25,04,27,9.30
2016,05,25,04,28,9.30
2016,05,25,04,29,9.30
2016,05,25,04,30,9.30
2016,05,25,04,31,9.30
2016,05,25,04,32,9.30
2016,05,25,04,33,9.30
2016,05,25,04,34,9.30
2016,05,25,04,35,9.30
2016,05,25,04,36,9.30
2016,05,25,04,37,9.30
2016,05,25,04,38,9.30
2016,05,25,04,39,9.30
2016,05,25,04,40,9.30
2016,05,25,04,41,9.30
2016,05,25,04,42,9.40
2016,05,25,04,43,9.40
2016,05,25,04,44,9.40
2016,05,25,04,45,9.40
2016,05,25,04,46,9.40
2016,05,25,04,47,9.40
2016,05,25,04,48,9.30
2016,05,25,04,49,9.30
2016,05,25,04,50,9.30
2016,05,25,04,51,9.30
2016,05,25,04,52,9.30
2016,05,25,04,53,9.30
2016,05,25,04,54,9.30
2016,05,25,04,55,9.20
2016,05,25,04,56,9.20
2016,05,25,04,57,9.20
2016,05,25,04,58,9.20
2016,05,25,04,59,9.10
2016,05,25,05,00,9.10
2016,05,25,05,01,9.10
2016,05,25,05,02,9.10
2016,05,25,05,03,9.10
2016,05,25,05,04,9.10
2016,05,25,05,05,9.10
2016,05,25,05,06,9.10
2016,05,25,05,07,9.10
2016,05,25,05,08,9.10
2016,05,25,05,09,9.10
2016,05,25,05,10,9.10
2016,05,25,05,11,9.00
2016,05,25,05,12,9.00
2016,05,25,05,13,9.00
2016,05,25,05,14,9.00
2016,05,25,05,15,9.00
2016,05,25,05,16,8.90
2016,05,25,05,17,8.90
2016,05,25,05,18,8.90
2016,05,25,05,19,8.90
2016,05,25,05,20,8.90
2016,05,25,05,21,8.90
2016,05,25,05,22,8.80
2016,05,25,05,23,8.80
2016,05,25,05,24,8.80
2016,05,25,05,25,8.80
2016,05,25,05,26,8.80
2016,05,25,05,27,8.80
2016,05,25,05,28,8.80
2016,05,25,05,29,8.80
2016,05,25,05,30,8.80
2016,05,25,05,31,8.80
2016,05,25,05,32,8.80
2016,05,25,05,33,8.80
2016,05,25,05,34,8.80
2016,05,25,05,35,8.80
2016,05,25,05,36,8.90
2016,05,25,05,37,8.90
2016,05,25,05,38,8.90
2016,05,25,05,39,8.90
2016,05,25,05,40,8.90
2016,05,25,05,41,8.80
2016,05,25,05,42,8.80
2016,05,25,05,43,8.80
2016,05,25,05,44,8.80
2016,05,25,05,45,8.80
2016,05,25,05,46,8.80
2016,05,25,05,47,8.90
2016,05,25,05,48,8.90
2016,05,25,05,49,8.90
2016,05,25,05,50,8.90
2016,05,25,05,51,9.00
2016,05,25,05,52,9.00
2016,05,25,05,53,9.00
2016,05,25,05,54,9.00
2016,05,25,05,55,9.10
2016,05,25,05,56,9.10
2016,05,25,05,57,9.10
2016,05,25,05,58,9.10
2016,05,25,05,59,9.10
2016,05,25,06,00,9.10
2016,05,25,06,01,9.10
2016,05,25,06,02,9.10
2016,05,25,06,03,9.10
2016,05,25,06,04,9.20
2016,05,25,06,05,9.20
2016,05,25,06,06,9.20
2016,05,25,06,07,9.20
2016,05,25,06,08,9.20
2016,05,25,06,09,9.20
2016,05,25,06,10,9.20
2016,05,25,06,11,9.20
2016,05,25,06,12,9.30
2016,05,25,06,13,9.30
2016,05,25,06,14,9.30
2016,05,25,06,15,9.30
2016,05,25,06,16,9.30
2016,05,25,06,17,9.30
2016,05,25,06,18,9.30
2016,05,25,06,19,9.30
2016,05,25,06,20,9.30
2016,05,25,06,21,9.30
2016,05,25,06,22,9.30
2016,05,25,06,23,9.30
2016,05,25,06,24,9.30
2016,05,25,06,25,9.30
2016,05,25,06,26,9.30
2016,05,25,06,27,9.40
2016,05,25,06,28,9.40
2016,05,25,06,29,9.40
2016,05,25,06,30,9.50
2016,05,25,06,31,9.50
2016,05,25,06,32,9.60
2016,05,25,06,33,9.60
2016,05,25,06,34,9.60
2016,05,25,06,35,9.70
2016,05,25,06,36,9.70
2016,05,25,06,37,9.70
2016,05,25,06,38,9.70
2016,05,25,06,39,9.80
2016,05,25,06,40,9.80
2016,05,25,06,41,9.80
2016,05,25,06,42,9.90
2016,05,25,06,43,9.90
2016,05,25,06,44,10.00
2016,05,25,06,45,10.10
2016,05,25,06,46,10.10
2016,05,25,06,47,10.20
2016,05,25,06,48,10.20
2016,05,25,06,49,10.30
2016,05,25,06,50,10.40
2016,05,25,06,51,10.40
2016,05,25,06,52,10.50
2016,05,25,06,53,10.50
2016,05,25,06,54,10.60
2016,05,25,06,55,10.70
2016,05,25,06,56,10.80
2016,05,25,06,57,10.80
2016,05,25,06,58,11.00
2016,05,25,06,59,11.00
2016,05,25,07,00,11.10
2016,05,25,07,01,11.20
2016,05,25,07,02,11.30
2016,05,25,07,03,11.30
2016,05,25,07,04,11.40
2016,05,25,07,05,11.40
2016,05,25,07,06,11.50
2016,05,25,07,07,11.50
2016,05,25,07,08,11.60
2016,05,25,07,09,11.70
2016,05,25,07,10,11.70
2016,05,25,07,11,11.70
2016,05,25,07,12,11.80
2016,05,25,07,13,11.80
2016,05,25,07,14,11.90
2016,05,25,07,15,11.90
2016,05,25,07,16,11.90
2016,05,25,07,17,11.90
2016,05,25,07,18,12.00
2016,05,25,07,19,12.00
2016,05,25,07,20,12.10
2016,05,25,07,21,12.10
2016,05,25,07,22,12.10
2016,05,25,07,23,12.10
2016,05,25,07,24,12.20
2016,05,25,07,25,12.20
2016,05,25,07,26,12.20
2016,05,25,07,27,12.30
2016,05,25,07,28,12.30
2016,05,25,07,29,12.30
2016,05,25,07,30,12.40
2016,05,25,07,31,12.40
2016,05,25,07,32,12.40
2016,05,25,07,33,12.40
2016,05,25,07,34,12.40
2016,05,25,07,35,12.50
2016,05,25,07,36,12.50
2016,05,25,07,37,12.50
2016,05,25,07,38,12.50
2016,05,25,07,39,12.50
2016,05,25,07,40,12.50
2016,05,25,07,41,12.50
2016,05,25,07,42,12.50
2016,05,25,07,43,12.40
2016,05,25,07,44,12.40
2016,05,25,07,45,12.40
2016,05,25,07,46,12.50
2016,05,25,07,47,12.50
2016,05,25,07,48,12.50
2016,05,25,07,49,12.50
2016,05,25,07,50,12.50
2016,05,25,07,51,12.50
2016,05,25,07,52,12.60
2016,05,25,07,53,12.60
2016,05,25,07,54,12.60
2016,05,25,07,55,12.60
2016,05,25,07,56,12.60
2016,05,25,07,57,12.60
2016,05,25,07,58,12.60
2016,05,25,07,59,12.60
2016,05,25,08,00,12.70
2016,05,25,08,01,12.70
2016,05,25,08,02,12.70
2016,05,25,08,03,12.80
2016,05,25,08,04,12.80
2016,05,25,08,05,12.90
2016,05,25,08,06,13.00
2016,05,25,08,07,13.00
2016,05,25,08,08,13.10
2016,05,25,08,09,13.20
2016,05,25,08,10,13.30
2016,05,25,08,11,13.30
2016,05,25,08,12,13.40
2016,05,25,08,13,13.50
2016,05,25,08,14,13.50
2016,05,25,08,15,13.60
2016,05,25,08,16,13.70
2016,05,25,08,17,13.70
2016,05,25,08,18,13.80
2016,05,25,08,19,13.90
2016,05,25,08,20,14.00
2016,05,25,08,21,14.00
2016,05,25,08,22,14.10
2016,05,25,08,23,14.10
2016,05,25,08,24,14.10
2016,05,25,08,25,14.20
2016,05,25,08,26,14.20
2016,05,25,08,27,14.20
2016,05,25,08,28,14.20
2016,05,25,08,29,14.30
2016,05,25,08,30,14.30
2016,05,25,08,31,14.30
2016,05,25,08,32,14.30
2016,05,25,08,33,14.30
2016,05,25,08,34,14.30
2016,05,25,08,35,14.30
2016,05,25,08,36,14.30
2016,05,25,08,37,14.30
2016,05,25,08,38,14.30
2016,05,25,08,39,14.30
2016,05,25,08,40,14.30
2016,05,25,08,41,14.30
2016,05,25,08,42,14.30
2016,05,25,08,43,14.40
2016,05,25,08,44,14.40
2016,05,25,08,45,14.50
2016,05,25,08,46,14.50
2016,05,25,08,47,14.60
2016,05,25,08,48,14.70
2016,05,25,08,49,14.80
2016,05,25,08,50,14.90
2016,05,25,08,51,14.90
2016,05,25,08,52,14.90
2016,05,25,08,53,14.90
2016,05,25,08,54,15.00
2016,05,25,08,55,15.00
2016,05,25,08,56,15.00
2016,05,25,08,57,15.00
2016,05,25,08,58,15.00
2016,05,25,08,59,14.90
2016,05,25,09,00,14.80
2016,05,25,09,01,14.80
2016,05,25,09,02,14.80
2016,05,25,09,03,14.90
2016,05,25,09,04,15.00
2016,05,25,09,05,15.00
2016,05,25,09,06,15.10
2016,05,25,09,07,15.20
2016,05,25,09,08,15.30
2016,05,25,09,09,15.30
2016,05,25,09,10,15.30
2016,05,25,09,11,15.40
2016,05,25,09,12,15.40
2016,05,25,09,13,15.40
2016,05,25,09,14,15.40
2016,05,25,09,15,15.40
2016,05,25,09,16,15.40
2016,05,25,09,17,15.40
2016,05,25,09,18,15.40
2016,05,25,09,19,15.40
2016,05,25,09,20,15.40
2016,05,25,09,21,15.50
2016,05,25,09,22,15.50
2016,05,25,09,23,15.60
2016,05,25,09,24,15.60
2016,05,25,09,25,15.60
2016,05,25,09,26,15.70
2016,05,25,09,27,15.80
2016,05,25,09,28,15.90
2016,05,25,09,29,16.10
2016,05,25,09,30,16.20
2016,05,25,09,31,16.40
2016,05,25,09,32,16.50
2016,05,25,09,33,16.60
2016,05,25,09,34,16.70
2016,05,25,09,35,16.80
2016,05,25,09,36,16.90
2016,05,25,09,37,17.00
2016,05,25,09,38,17.00
2016,05,25,09,39,17.00
2016,05,25,09,40,16.90
2016,05,25,09,41,16.80
2016,05,25,09,42,16.80
2016,05,25,09,43,16.80
2016,05,25,09,44,16.80
2016,05,25,09,45,16.80
2016,05,25,09,46,16.80
2016,05,25,09,47,16.80
2016,05,25,09,48,16.90
2016,05,25,09,49,16.90
2016,05,25,09,50,16.90
2016,05,25,09,51,16.90
2016,05,25,09,52,16.90
2016,05,25,09,53,16.90
2016,05,25,09,54,17.00
2016,05,25,09,55,17.10
2016,05,25,09,56,17.10
2016,05,25,09,57,17.20
2016,05,25,09,58,17.20
2016,05,25,09,59,17.20
2016,05,25,10,00,17.30
2016,05,25,10,01,17.30
2016,05,25,10,02,17.30
2016,05,25,10,03,17.30
2016,05,25,10,04,17.30
2016,05,25,10,05,17.30
2016,05,25,10,06,17.30
2016,05,25,10,07,17.20
2016,05,25,10,08,17.10
2016,05,25,10,09,17.00
2016,05,25,10,10,17.00
2016,05,25,10,11,17.10
2016,05,25,10,12,17.10
2016,05,25,10,13,17.00
2016,05,25,10,14,17.00
2016,05,25,10,15,16.90
2016,05,25,10,16,16.80
2016,05,25,10,17,16.70
2016,05,25,10,18,16.60
2016,05,25,10,19,16.60
2016,05,25,10,20,16.50
2016,05,25,10,21,16.40
2016,05,25,10,22,16.40
2016,05,25,10,23,16.40
2016,05,25,10,24,16.40
2016,05,25,10,25,16.40
2016,05,25,10,26,16.30
2016,05,25,10,27,16.40
2016,05,25,10,28,16.40
2016,05,25,10,29,16.50
2016,05,25,10,30,16.50
2016,05,25,10,31,16.60
2016,05,25,10,32,16.60
2016,05,25,10,33,16.60
2016,05,25,10,34,16.60
2016,05,25,10,35,16.70
2016,05,25,10,36,16.70
2016,05,25,10,37,16.60
2016,05,25,10,38,16.60
2016,05,25,10,39,16.60
2016,05,25,10,40,16.60
2016,05,25,10,41,16.70
2016,05,25,10,42,16.80
2016,05,25,10,43,17.00
2016,05,25,10,44,17.10
2016,05,25,10,45,17.30
2016,05,25,10,46,17.30
2016,05,25,10,47,17.30
2016,05,25,10,48,17.30
2016,05,25,10,49,17.20
2016,05,25,10,50,17.10
2016,05,25,10,51,17.00
2016,05,25,10,52,17.00
2016,05,25,10,53,17.00
2016,05,25,10,54,16.90
2016,05,25,10,55,16.90
2016,05,25,10,56,16.90
2016,05,25,10,57,16.90
2016,05,25,10,58,16.90
2016,05,25,10,59,16.90
2016,05,25,11,00,17.00
2016,05,25,11,01,17.00
2016,05,25,11,02,17.10
2016,05,25,11,03,17.20
2016,05,25,11,04,17.20
2016,05,25,11,05,17.20
2016,05,25,11,06,17.20
2016,05,25,11,07,17.20
2016,05,25,11,08,17.20
2016,05,25,11,09,17.20
2016,05,25,11,10,17.20
2016,05,25,11,11,17.20
2016,05,25,11,12,17.20
2016,05,25,11,13,17.20
2016,05,25,11,14,17.30
2016,05,25,11,15,17.40
2016,05,25,11,16,17.40
2016,05,25,11,17,17.40
2016,05,25,11,18,17.40
2016,05,25,11,19,17.30
2016,05,25,11,20,17.20
2016,05,25,11,21,17.20
2016,05,25,11,22,17.20
2016,05,25,11,23,17.20
2016,05,25,11,24,17.10
2016,05,25,11,25,17.10
2016,05,25,11,26,17.10
2016,05,25,11,27,17.10
2016,05,25,11,28,17.10
2016,05,25,11,29,17.20
2016,05,25,11,30,17.30
2016,05,25,11,31,17.30
2016,05,25,11,32,17.30
2016,05,25,11,33,17.30
2016,05,25,11,34,17.20
2016,05,25,11,35,17.20
2016,05,25,11,36,17.20
2016,05,25,11,37,17.10
2016,05,25,11,38,17.10
2016,05,25,11,39,17.20
2016,05,25,11,40,17.20
2016,05,25,11,41,17.30
2016,05,25,11,42,17.40
2016,05,25,11,43,17.40
2016,05,25,11,44,17.40
2016,05,25,11,45,17.40
2016,05,25,11,46,17.50
2016,05,25,11,47,17.50
2016,05,25,11,48,17.60
2016,05,25,11,49,17.70
2016,05,25,11,50,17.60
2016,05,25,11,51,17.60
2016,05,25,11,52,17.60
2016,05,25,11,53,17.60
2016,05,25,11,54,17.60
2016,05,25,11,55,17.60
2016,05,25,11,56,17.60
2016,05,25,11,57,17.60
2016,05,25,11,58,17.70
2016,05,25,11,59,17.70
2016,05,25,12,00,17.60
2016,05,25,12,01,17.60
2016,05,25,12,02,17.50
2016,05,25,12,03,17.40
2016,05,25,12,04,17.40
2016,05,25,12,05,17.40
2016,05,25,12,06,17.40
2016,05,25,12,07,17.40
2016,05,25,12,08,17.40
2016,05,25,12,09,17.50
2016,05,25,12,10,17.60
2016,05,25,12,11,17.60
2016,05,25,12,12,17.60
2016,05,25,12,13,17.60
2016,05,25,12,14,17.60
2016,05,25,12,15,17.70
2016,05,25,12,16,17.80
2016,05,25,12,17,17.80
2016,05,25,12,18,17.80
2016,05,25,12,19,17.70
2016,05,25,12,20,17.50
2016,05,25,12,21,17.50
2016,05,25,12,22,17.50
2016,05,25,12,23,17.50
2016,05,25,12,24,17.60
2016,05,25,12,25,17.50
2016,05,25,12,26,17.50
2016,05,25,12,27,17.40
2016,05,25,12,28,17.30
2016,05,25,12,29,17.30
2016,05,25,12,30,17.30
2016,05,25,12,31,17.40
2016,05,25,12,32,17.40
2016,05,25,12,33,17.40
2016,05,25,12,34,17.40
2016,05,25,12,35,17.50
2016,05,25,12,36,17.60
2016,05,25,12,37,17.60
2016,05,25,12,38,17.70
2016,05,25,12,39,17.80
2016,05,25,12,40,17.80
2016,05,25,12,41,17.80
2016,05,25,12,42,17.80
2016,05,25,12,43,17.80
2016,05,25,12,44,17.80
2016,05,25,12,45,17.80
2016,05,25,12,46,17.80
2016,05,25,12,47,17.80
2016,05,25,12,48,17.80
2016,05,25,12,49,17.80
2016,05,25,12,50,17.90
2016,05,25,12,51,18.00
2016,05,25,12,52,18.10
2016,05,25,12,53,18.20
2016,05,25,12,54,18.20
2016,05,25,12,55,18.20
2016,05,25,12,56,18.10
2016,05,25,12,57,18.10
2016,05,25,12,58,18.00
2016,05,25,12,59,17.90
2016,05,25,13,00,17.80
2016,05,25,13,01,17.80
2016,05,25,13,02,17.60
2016,05,25,13,03,17.50
2016,05,25,13,04,17.40
2016,05,25,13,05,17.50
2016,05,25,13,06,17.60
2016,05,25,13,07,17.50
2016,05,25,13,08,17.40
2016,05,25,13,09,17.30
2016,05,25,13,10,17.30
2016,05,25,13,11,17.40
2016,05,25,13,12,17.50
2016,05,25,13,13,17.50
2016,05,25,13,14,17.70
2016,05,25,13,15,17.70
2016,05,25,13,16,17.70
2016,05,25,13,17,17.80
2016,05,25,13,18,17.90
2016,05,25,13,19,17.90
2016,05,25,13,20,17.90
2016,05,25,13,21,17.80
2016,05,25,13,22,17.80
2016,05,25,13,23,17.80
2016,05,25,13,24,17.70
2016,05,25,13,25,17.60
2016,05,25,13,26,17.60
2016,05,25,13,27,17.60
2016,05,25,13,28,17.50
2016,05,25,13,29,17.50
2016,05,25,13,30,17.50
2016,05,25,13,31,17.50
2016,05,25,13,32,17.60
2016,05,25,13,33,17.70
2016,05,25,13,34,17.70
2016,05,25,13,35,17.70
2016,05,25,13,36,17.60
2016,05,25,13,37,17.50
2016,05,25,13,38,17.60
2016,05,25,13,39,17.60
2016,05,25,13,40,17.60
2016,05,25,13,41,17.50
2016,05,25,13,42,17.50
2016,05,25,13,43,17.50
2016,05,25,13,44,17.50
2016,05,25,13,45,17.50
2016,05,25,13,46,17.50
2016,05,25,13,47,17.60
2016,05,25,13,48,17.60
2016,05,25,13,49,17.50
2016,05,25,13,50,17.40
2016,05,25,13,51,17.40
2016,05,25,13,52,17.40
2016,05,25,13,53,17.50
2016,05,25,13,54,17.40
2016,05,25,13,55,17.30
2016,05,25,13,56,17.40
2016,05,25,13,57,17.40
2016,05,25,13,58,17.40
2016,05,25,13,59,17.50
2016,05,25,14,00,17.60
2016,05,25,14,01,17.70
2016,05,25,14,02,17.70
2016,05,25,14,03,17.70
2016,05,25,14,04,17.70
2016,05,25,14,05,17.80
2016,05,25,14,06,17.80
2016,05,25,14,07,17.80
2016,05,25,14,08,17.70
2016,05,25,14,09,17.50
2016,05,25,14,10,17.50
2016,05,25,14,11,17.50
2016,05,25,14,12,17.60
2016,05,25,14,13,17.70
2016,05,25,14,14,17.80
2016,05,25,14,15,17.80
2016,05,25,14,16,17.80
2016,05,25,14,17,17.70
2016,05,25,14,18,17.70
2016,05,25,14,19,17.70
2016,05,25,14,20,17.70
2016,05,25,14,21,17.80
2016,05,25,14,22,17.80
2016,05,25,14,23,17.90
2016,05,25,14,24,18.00
2016,05,25,14,25,18.00
2016,05,25,14,26,17.90
2016,05,25,14,27,17.90
2016,05,25,14,28,17.80
2016,05,25,14,29,17.80
2016,05,25,14,30,17.70
2016,05,25,14,31,17.80
2016,05,25,14,32,17.90
2016,05,25,14,33,18.00
2016,05,25,14,34,17.90
2016,05,25,14,35,17.90
2016,05,25,14,36,17.90
2016,05,25,14,37,17.90
2016,05,25,14,38,17.80
2016,05,25,14,39,17.80
2016,05,25,14,40,17.80
2016,05,25,14,41,17.80
2016,05,25,14,42,17.80
2016,05,25,14,43,17.80
2016,05,25,14,44,17.90
2016,05,25,14,45,18.00
2016,05,25,14,46,18.10
2016,05,25,14,47,18.10
2016,05,25,14,48,18.20
2016,05,25,14,49,18.30
2016,05,25,14,50,18.50
2016,05,25,14,51,18.50
2016,05,25,14,52,18.30
2016,05,25,14,53,18.10
2016,05,25,14,54,18.00
2016,05,25,14,55,17.90
2016,05,25,14,56,17.80
2016,05,25,14,57,17.70
2016,05,25,14,58,17.80
2016,05,25,14,59,18.00
2016,05,25,15,00,18.10
2016,05,25,15,01,18.00
2016,05,25,15,02,18.00
2016,05,25,15,03,17.90
2016,05,25,15,04,17.70
2016,05,25,15,05,17.70
2016,05,25,15,06,17.70
2016,05,25,15,07,17.80
2016,05,25,15,08,17.90
2016,05,25,15,09,17.90
2016,05,25,15,10,18.00
2016,05,25,15,11,18.10
2016,05,25,15,12,18.10
2016,05,25,15,13,18.20
2016,05,25,15,14,18.20
2016,05,25,15,15,18.10
2016,05,25,15,16,18.10
2016,05,25,15,17,18.00
2016,05,25,15,18,18.10
2016,05,25,15,19,18.30
2016,05,25,15,20,18.40
2016,05,25,15,21,18.40
2016,05,25,15,22,18.40
2016,05,25,15,23,18.40
2016,05,25,15,24,18.40
2016,05,25,15,25,18.40
2016,05,25,15,26,18.40
2016,05,25,15,27,18.30
2016,05,25,15,28,18.20
2016,05,25,15,29,18.20
2016,05,25,15,30,18.10
2016,05,25,15,31,18.10
2016,05,25,15,32,18.10
2016,05,25,15,33,18.10
2016,05,25,15,34,18.20
2016,05,25,15,35,18.20
2016,05,25,15,36,18.20
2016,05,25,15,37,18.30
2016,05,25,15,38,18.30
2016,05,25,15,39,18.30
2016,05,25,15,40,18.30
2016,05,25,15,41,18.30
2016,05,25,15,42,18.30
2016,05,25,15,43,18.20
2016,05,25,15,44,18.10
2016,05,25,15,45,18.00
2016,05,25,15,46,17.90
2016,05,25,15,47,17.90
2016,05,25,15,48,17.90
2016,05,25,15,49,17.90
2016,05,25,15,50,17.90
2016,05,25,15,51,18.00
2016,05,25,15,52,18.00
2016,05,25,15,53,18.10
2016,05,25,15,54,18.10
2016,05,25,15,55,18.00
2016,05,25,15,56,17.90
2016,05,25,15,57,17.90
2016,05,25,15,58,18.00
2016,05,25,15,59,18.00
2016,05,25,16,00,18.00
2016,05,25,16,01,17.90
2016,05,25,16,02,17.90
2016,05,25,16,03,18.00
2016,05,25,16,04,18.10
2016,05,25,16,05,18.20
2016,05,25,16,06,18.10
2016,05,25,16,07,18.10
2016,05,25,16,08,18.10
2016,05,25,16,09,18.10
2016,05,25,16,10,18.00
2016,05,25,16,11,17.90
2016,05,25,16,12,17.90
2016,05,25,16,13,17.80
2016,05,25,16,14,17.90
2016,05,25,16,15,17.90
2016,05,25,16,16,17.90
2016,05,25,16,17,17.90
2016,05,25,16,18,18.00
2016,05,25,16,19,18.10
2016,05,25,16,20,18.10
2016,05,25,16,21,18.20
2016,05,25,16,22,18.20
2016,05,25,16,23,18.30
2016,05,25,16,24,18.30
2016,05,25,16,25,18.30
2016,05,25,16,26,18.20
2016,05,25,16,27,18.20
2016,05,25,16,28,18.20
2016,05,25,16,29,18.20
2016,05,25,16,30,18.20
2016,05,25,16,31,18.20
2016,05,25,16,32,18.10
2016,05,25,16,33,18.10
2016,05,25,16,34,18.00
2016,05,25,16,35,18.00
2016,05,25,16,36,18.00
2016,05,25,16,37,18.00
2016,05,25,16,38,18.10
2016,05,25,16,39,18.10
2016,05,25,16,40,18.00
2016,05,25,16,41,17.90
2016,05,25,16,42,17.80
2016,05,25,16,43,17.90
2016,05,25,16,44,17.90
2016,05,25,16,45,17.90
2016,05,25,16,46,17.90
2016,05,25,16,47,17.90
2016,05,25,16,48,18.00
2016,05,25,16,49,18.00
2016,05,25,16,50,18.00
2016,05,25,16,51,18.10
2016,05,25,16,52,18.10
2016,05,25,16,53,18.20
2016,05,25,16,54,18.00
2016,05,25,16,55,17.90
2016,05,25,16,56,17.80
2016,05,25,16,57,17.80
2016,05,25,16,58,17.60
2016,05,25,16,59,17.60
2016,05,25,17,00,17.50
2016,05,25,17,01,17.50
2016,05,25,17,02,17.40
2016,05,25,17,03,17.50
2016,05,25,17,04,17.50
2016,05,25,17,05,17.60
2016,05,25,17,06,17.50
2016,05,25,17,07,17.50
2016,05,25,17,08,17.50
2016,05,25,17,09,17.40
2016,05,25,17,10,17.40
2016,05,25,17,11,17.30
2016,05,25,17,12,17.30
2016,05,25,17,13,17.40
2016,05,25,17,14,17.40
2016,05,25,17,15,17.40
2016,05,25,17,16,17.40
2016,05,25,17,17,17.40
2016,05,25,17,18,17.50
2016,05,25,17,19,17.60
2016,05,25,17,20,17.60
2016,05,25,17,21,17.60
2016,05,25,17,22,17.60
2016,05,25,17,23,17.70
2016,05,25,17,24,17.70
2016,05,25,17,25,17.60
2016,05,25,17,26,17.50
2016,05,25,17,27,17.40
2016,05,25,17,28,17.40